Regional Weather Roundup
Issued by NWS Spokane, WA

Home | Current Version | Previous Version | Text Only | Print | Product List | Glossary On
Versions: 1 2 3 4 5 6 7 8 9 10 11 12 13 14 15 16 17 18 19 20 21 22 23 24 25 26 27 28 29 30 31 32 33 34 35 36 37 38 39 40 41 42 43 44 45 46 47 48 49 50
000
NZUS01 KOTX 211825
RWROTX

Eastern Washington/Northern Idaho Roundup
National Weather Service, Spokane WA
1100 AM PDT MON AUG 21 2017

Note: "fair" indicated few or no clouds below 12,000 feet with no
significant weather and/or obstructions to visibility.

...Northeast Washington and Northern Idaho Panhandle...

CITY           SKY/WX    TMP DP  RH WIND       PRES   REMARKS
Spokane Intl   MOSUNNY   67  45  45 NE7       30.16F
Spokane Downto SUNNY     70  46  42 CALM      30.16S
Coeur d Alene  SUNNY     69  48  47 NE7       30.17S
Deer Park      SUNNY     70  43  37 CALM      30.17S
Sandpoint      SUNNY     66  46  48 NE5       30.17S
Bonners Ferry  FAIR      64  45  48 N5        30.20R

...Southeast Washington and southern Idaho Panhandle...

CITY           SKY/WX    TMP DP  RH WIND       PRES   REMARKS
Walla Walla    SUNNY     71  43  36 SW6       30.10S
Pullman/Moscow SUNNY     71  42  35 E6        30.17S HAZE
Lewiston       SUNNY     67  46  47 CALM      30.13S
Lowell           N/A     61  47  59 CALM      30.17S
Grangeville    FAIR      64  37  36 CALM      30.19S

...Columbia Basin...

CITY           SKY/WX    TMP DP  RH WIND       PRES   REMARKS
Ephrata        SUNNY     75  41  29 NE5       30.12S
Moses Lake     SUNNY     73  44  35 NW5       30.12S
Pasco          SUNNY     70  49  47 CALM      30.10S
Richland       CLEAR     74  50  43 CALM      30.10S
Hermiston      SUNNY     70  51  51 CALM      30.08F
Pendleton      SUNNY     70  45  40 NW6       30.10S

...East Slopes Cascades...

CITY           SKY/WX    TMP DP  RH WIND       PRES   REMARKS
The Dalles     SUNNY     71  55  56 CALM      30.07F
Yakima         SUNNY     72  53  51 W5        30.11S
Ellensburg     SUNNY     68  53  58 MISG      30.14S
Stampede Pass  SUNNY     64  47  53 VRB3      30.22S
Wenatchee      SUNNY     68  49  50 W3        30.13S
Omak           SUNNY     72  44  36 N9        30.13F
Sunnyside        N/A     66  53  62 CALM      30.10S

...Southern British Columbia...

CITY           SKY/WX    TMP DP  RH WIND       PRES   REMARKS
Penticton      PTSUNNY   68  54  60 N3        30.15S
Castlegar      MOSUNNY   64  48  55 N6        30.19R
Cranbrook      PTSUNNY   63  43  48 SE5       30.21S
Osoyoos          N/A     70  54  56 N2          N/A
Creston          N/A     64  48  55 NW2         N/A

...Western Montana...

CITY           SKY/WX    TMP DP  RH WIND       PRES   REMARKS
Kalispell      CLEAR     66  44  45 CALM      30.19F
Libby            N/A     64  43  45 CALM      30.18S
Missoula       SUNNY     63  40  42 CALM      30.21F HAZE

...Neighboring Cities...

CITY           SKY/WX    TMP DP  RH WIND       PRES   REMARKS
Seattle        MOSUNNY   62  56  80 NW3       30.12F
Portland       SUNNY     67  57  70 N6        30.05F
Boise          SUNNY     71  41  33 N3        30.11S
Great Falls    SUNNY     65  33  30 CALM      30.20F
Calgary        MOSUNNY   61  41  48 S13       30.17F



USA.gov is the U.S. government's official web portal to all federal, state and local government web resources and services.